TimeEDT,TemperatureF,Dew PointF,Humidity,Sea Level PressureIn,VisibilityMPH,Wind Direction,Wind SpeedMPH,Gust SpeedMPH,PrecipitationIn,Events,Conditions,WindDirDegrees,DateUTC
12:58 AM,49.3,43.7,81,30.04,10.0,SE,2.3,-,N/A,,Clear,130,2013-04-02 04:58:00
1:58 AM,47.3,43.2,86,30.05,10.0,Calm,Calm,-,N/A,,Clear,0,2013-04-02 05:58:00
2:58 AM,45.3,45.0,99,30.07,10.0,Calm,Calm,-,N/A,,Clear,0,2013-04-02 06:58:00
3:58 AM,45.0,43.3,94,30.07,10.0,Calm,Calm,-,N/A,,Clear,0,2013-04-02 07:58:00
4:58 AM,43.9,43.2,97,30.06,10.0,Calm,Calm,-,N/A,,Clear,0,2013-04-02 08:58:00
5:08 AM,42.8,42.8,100,30.06,8.0,Calm,Calm,-,N/A,,Clear,0,2013-04-02 09:08:00
5:13 AM,42.8,42.8,100,30.06,5.0,Calm,Calm,-,N/A,,Clear,0,2013-04-02 09:13:00
5:18 AM,44.6,42.8,93,30.06,5.0,Calm,Calm,-,N/A,,Clear,0,2013-04-02 09:18:00
5:23 AM,44.6,42.8,93,30.06,9.0,Calm,Calm,-,N/A,,Clear,0,2013-04-02 09:23:00
5:38 AM,42.8,42.8,100,30.07,5.0,Calm,Calm,-,N/A,,Clear,0,2013-04-02 09:38:00
5:48 AM,42.8,42.8,100,30.07,1.2,Calm,Calm,-,N/A,,Clear,0,2013-04-02 09:48:00
5:58 AM,42.8,42.8,100,30.08,6.0,Calm,Calm,-,N/A,,Clear,20,2013-04-02 09:58:00
6:03 AM,42.8,42.8,100,30.07,10.0,Calm,Calm,-,N/A,,Clear,0,2013-04-02 10:03:00
6:58 AM,42.4,42.3,99,30.10,9.0,Calm,Calm,-,N/A,,Clear,0,2013-04-02 10:58:00
7:18 AM,42.8,42.8,100,30.10,3.0,Calm,Calm,-,N/A,,Clear,0,2013-04-02 11:18:00
7:23 AM,42.8,42.8,100,30.10,1.0,Calm,Calm,-,N/A,,Clear,0,2013-04-02 11:23:00
7:28 AM,42.8,42.8,100,30.11,1.0,Calm,Calm,-,N/A,,Clear,0,2013-04-02 11:28:00
7:29 AM,42.8,42.8,100,30.10,7.0,Calm,Calm,-,N/A,,Clear,0,2013-04-02 11:29:00
7:33 AM,42.8,42.8,100,30.11,2.5,Calm,Calm,-,N/A,,Clear,0,2013-04-02 11:33:00
7:38 AM,42.8,42.8,100,30.12,1.0,Calm,Calm,-,N/A,,Clear,0,2013-04-02 11:38:00
7:39 AM,42.8,42.8,100,30.11,7.0,Calm,Calm,-,N/A,,Clear,0,2013-04-02 11:39:00
7:43 AM,42.8,41.0,93,30.12,1.0,Calm,Calm,-,N/A,,Clear,10,2013-04-02 11:43:00
7:48 AM,42.8,42.8,100,30.12,2.0,East,2.3,-,N/A,,Clear,100,2013-04-02 11:48:00
7:53 AM,42.8,42.8,100,30.12,10.0,East,2.3,-,N/A,,Clear,100,2013-04-02 11:53:00
7:58 AM,42.3,41.9,99,30.13,10.0,East,2.3,-,N/A,,Clear,100,2013-04-02 11:58:00
8:58 AM,50.9,48.4,91,30.15,10.0,WNW,3.5,-,N/A,,Clear,300,2013-04-02 12:58:00
9:58 AM,58.6,42.4,55,30.17,7.0,NE,9.2,-,N/A,,Clear,50,2013-04-02 13:58:00
10:58 AM,63.5,42.1,46,30.17,2.5,Variable,5.8,-,N/A,,Haze,0,2013-04-02 14:58:00
11:01 AM,64.4,41.0,42,30.16,6.0,NE,6.9,-,N/A,,Haze,40,2013-04-02 15:01:00
11:03 AM,64.4,41.0,42,30.16,2.5,NNE,5.8,-,N/A,,Haze,30,2013-04-02 15:03:00
11:08 AM,64.4,42.8,45,30.16,3.0,NE,8.1,-,N/A,,Haze,40,2013-04-02 15:08:00
11:58 AM,66.6,42.3,41,30.16,4.0,NNW,5.8,-,N/A,,Haze,340,2013-04-02 15:58:00
12:58 PM,70.2,43.0,37,30.14,7.0,Variable,6.9,-,N/A,,Partly Cloudy,0,2013-04-02 16:58:00
1:58 PM,72.1,42.8,35,30.12,10.0,Variable,4.6,-,N/A,,Clear,0,2013-04-02 17:58:00
2:58 PM,72.1,42.8,35,30.12,10.0,Variable,4.6,-,N/A,,Clear,0,2013-04-02 18:58:00
3:58 PM,76.6,42.8,30,30.07,9.0,Variable,4.6,-,N/A,,Clear,0,2013-04-02 19:58:00
4:58 PM,77.2,41.4,28,30.05,10.0,Variable,3.5,-,N/A,,Clear,0,2013-04-02 20:58:00
5:08 PM,77.0,42.8,29,30.04,2.5,Variable,2.3,-,N/A,,Haze,0,2013-04-02 21:08:00
5:43 PM,75.2,41.0,29,30.03,1.8,Variable,2.3,-,N/A,,Haze,0,2013-04-02 21:43:00
5:58 PM,75.7,44.2,32,30.05,10.0,NNW,3.5,-,N/A,,Clear,340,2013-04-02 21:58:00
6:58 PM,75.0,41.5,30,30.05,10.0,NW,2.3,-,N/A,,Clear,320,2013-04-02 22:58:00
8:58 PM,58.8,48.7,69,30.06,10.0,Calm,Calm,-,N/A,,Clear,0,2013-04-03 00:58:00
9:58 PM,55.8,47.5,74,30.08,10.0,Calm,Calm,-,N/A,,Clear,0,2013-04-03 01:58:00
10:58 PM,53.4,47.8,81,30.10,10.0,Calm,Calm,-,N/A,,Clear,360,2013-04-03 02:58:00
11:58 PM,49.6,47.3,92,30.10,10.0,NW,3.5,-,N/A,,Clear,310,2013-04-03 03:58:00